Location: Lane
(33.5226°N, 79.8788°W)
Time: 21:04:50
(UTC+00:00)

Vanguard 2 Rocket - Pass Details

Date: 03 October 2022
Orbit: 555 x 3321 km, 32.9° (Epoch: 28 November)

Event Time Altitude Azimuth Distance (km) Brightness Sun altitude
Rises 01:26:57 0° 217° (SW) 7,291 11.7 -30.6°
Reaches altitude 10° 01:32:39 10° 210° (SSW) 6,172 11.2 -31.8°
Enters shadow 01:47:34 37° 160° (SSE) 3,654 9.5 -34.7°
